Location: Ozark
(37.5425°N, 88.7628°W)
Time: 06:42:24
(UTC+00:00)

Lacrosse 5 rocket - Pass Details

Date: 26 January 2020
Orbit: 465 x 632 km, 57.0° (Epoch: 27 February)

Event Time Altitude Azimuth Distance (km) Brightness Sun altitude
Exits shadow 12:26:16 - 331° (NNW) 2,788 4.5 -7.7°
Reaches altitude 10° 12:29:11 10° 353° (N) 1,973 3.9 -7.2°
Maximum altitude 12:31:44 15° 28° (NNE) 1,657 3.9 -6.7°
Drops below altitude 10° 12:34:15 10° 63° (ENE) 1,921 4.8 -6.2°
Sets 12:37:22 0° 88° (E) 2,781 6.4 -5.7°
